Vertical_Velocity
-4 -4 -5 -6 -8 -9 -8 -6 -2 0 1 -1 -1 -1 0 2 1 0 -1 -1 -2 -3 -2 0 1 -0 -1 0 3 5 6 6 6 5 3 2 3 2 1 -0 4 12 19 25 27 28 27 24 16 8 1 -3 -2 0 3 4 4 3 2 2 2 3 3 3 1 0 -1 -2 -3
-5 -5 -5 -7 -7 -6 -3 -1 -0 -0 -0 -1 -1 -1 -0 0 0 1 1 1 -0 -1 -2 -1 -0 -0 -1 -1 2 4 5 6 7 7 4 2 2 4 6 11 17 21 23 23 20 16 12 7 2 -1 -2 -1 2 3 3 3 3 3 3 3 2 2 2 1 -2 -3 -3 -3 -3
-4 -4 -4 -4 -3 -2 -0 -0 -1 -1 -0 -0 -1 -1 -1 -1 3 3 2 -0 -1 -1 -0 0 0 0 1 1 3 5 6 6 11 13 13 10 10 13 17 21 21 19 16 11 7 4 1 -1 -2 -1 0 2 3 3 3 3 4 4 3 1 0 -0 -1 -3 -4 -5 -4 -3 -1
-2 -2 -2 -2 -1 -1 -0 -1 -0 0 1 1 0 0 0 1 2 1 -0 -1 4 10 16 17 14 12 11 11 12 11 10 11 16 20 22 21 22 23 23 20 17 13 8 3 0 -1 -1 -1 0 1 2 3 3 3 2 2 2 1 -0 -3 -3 -3 -4 -5 -5 -4 -2 -1 0
0 -0 -1 -1 -1 -0 -0 0 1 1 1 0 1 1 2 3 1 -0 0 5 15 22 27 28 25 23 22 23 23 21 19 18 21 23 26 27 25 21 16 10 6 2 -0 -2 -2 -1 -0 1 1 1 1 1 1 0 -0 -1 -1 -3 -4 -5 -5 -4 -4 -3 -2 -1 0 1 2
0 -1 -1 -1 -0 0 0 1 1 2 2 3 3 3 2 2 -0 -0 3 11 15 17 18 18 16 16 18 23 25 25 23 23 23 23 24 23 18 12 6 1 -2 -3 -4 -4 -2 -1 0 0 -0 -1 -1 -1 -1 -1 -2 -3 -3 -4 -4 -3 -3 -2 -1 -0 -0 0 1 2 1
-1 -1 -1 -1 0 1 2 2 3 3 4 5 4 3 2 1 -0 1 3 7 8 9 9 9 10 12 17 23 26 27 25 23 21 18 15 10 5 1 -1 -3 -4 -5 -5 -4 -2 -1 -1 -1 -1 -1 -1 -1 -1 -1 -1 -2 -1 -1 -1 -1 -1 -0 0 -0 -0 0 1 1 0
-1 -0 1 2 2 2 3 4 6 7 7 7 6 5 3 2 1 -0 -1 -0 -1 0 3 9 13 15 15 16 18 18 17 15 11 7 3 -1 -2 -2 -2 -2 -4 -5 -5 -4 -2 -2 -1 -1 -1 -1 -0 -0 0 -0 -0 -0 0 0 0 0 -0 0 0 0 -0 0 0 0 0
4 6 7 7 7 5 3 4 8 9 8 5 3 3 2 1 0 -1 -1 -2 -4 -5 -5 0 7 7 5 3 4 5 5 5 2 -1 -3 -5 -3 -2 -2 -3 -5 -5 -4 -2 -1 -1 -0 -0 0 0 0 1 1 0 0 0 0 0 0 -0 0 0 -0 0 0 0 1 1 1
10 10 8 5 4 4 4 4 6 5 3 1 1 2 2 2 3 3 3 2 1 -1 -3 -5 -3 -3 -3 -3 -2 -1 -1 -1 -2 -3 -4 -3 -2 -2 -3 -5 -5 -4 -2 -0 0 1 1 1 1 1 1 0 0 -1 -1 -1 -1 -1 -1 -1 -0 -0 -0 -0 1 2 2 1 2
9 7 5 1 0 0 1 1 2 3 3 4 4 5 6 7 7 7 7 6 6 5 2 -1 -2 -3 -3 -3 -3 -3 -3 -3 -4 -3 -3 -2 -2 -3 -4 -5 -4 -3 -1 0 1 1 1 1 0 -0 -1 -1 -1 -1 -2 -2 -1 -1 -1 -0 1 1 1 0 1 2 2 1 2
7 5 3 1 2 2 3 3 4 5 6 7 7 7 7 7 7 7 6 6 5 3 1 -1 -2 -2 -2 -2 -2 -2 -3 -3 -3 -2 -2 -2 -3 -4 -5 -5 -4 -3 -2 -1 -1 -0 -0 -1 -1 -1 -1 -1 -1 -0 -0 0 1 1 1 1 2 2 1 0 0 1 1 1 1
5 5 5 6 6 7 7 7 7 7 6 5 4 4 3 3 3 2 2 1 0 -1 -1 -3 -3 -3 -3 -3 -2 -2 -2 -2 -2 -2 -3 -3 -4 -5 -5 -4 -4 -3 -2 -2 -2 -1 -1 -1 -1 -0 0 0 1 1 2 2 2 2 1 1 1 1 1 -0 -0 -0 -0 0 0
4 5 6 8 8 8 8 7 5 4 2 2 1 0 -0 -1 -1 -1 -2 -2 -2 -3 -3 -3 -3 -3 -3 -3 -3 -3 -3 -3 -4 -4 -5 -5 -6 -5 -5 -4 -3 -2 -2 -1 -1 -0 0 0 0 1 1 1 1 1 1 1 1 0 0 0 -0 -0 -1 -1 -1 -1 -1 -1 -1
6 6 7 7 7 6 5 3 2 0 -0 -0 -1 -1 -2 -2 -2 -2 -2 -2 -2 -2 -2 -3 -3 -3 -3 -3 -4 -4 -5 -5 -6 -6 -6 -6 -5 -4 -3 -2 -1 -1 -0 0 0 0 0 0 0 0 0 -0 -1 -1 -1 -1 -1 -1 -1 -1 -1 -1 -2 -2 -2 -2 -2 -2 -2
7 7 7 6 5 4 3 2 1 1 1 0 -0 -1 -1 -1 -2 -2 -2 -2 -3 -3 -4 -4 -5 -5 -6 -6 -6 -6 -6 -6 -6 -5 -5 -4 -3 -2 -1 -0 0 -0 -0 -0 -1 -1 -1 -1 -1 -1 -1 -1 -2 -2 -2 -1 -1 -2 -2 -2 -2 -2 -2 -2 -2 -2 -2 -2 -2
6 6 6 6 5 4 3 3 3 2 2 0 -1 -1 -2 -3 -4 -5 -5 -6 -7 -7 -7 -8 -7 -7 -7 -6 -6 -5 -4 -3 -3 -2 -1 -1 -1 -1 -0 -1 -1 -1 -1 -1 -1 -2 -2 -2 -1 -1 -1 -1 -1 -1 -1 -1 -1 -1 -1 -2 -1 -2 -2 -2 -2 -2 -2 -2 -2
4 4 4 3 2 1 0 -0 -1 -2 -3 -4 -5 -6 -6 -7 -7 -8 -8 -7 -7 -7 -6 -5 -4 -3 -3 -2 -2 -1 -1 -1 -1 -1 -1 -1 -1 -1 -1 -1 -1 -1 -1 -1 -2 -2 -2 -1 -1 -1 -1 -1 -1 -1 -1 -1 -1 -1 -1 -1 -1 -1 -2 -2 -2 -2 -1 -1 -2
1 0 -1 -2 -3 -4 -4 -5 -5 -6 -6 -6 -6 -6 -5 -5 -5 -4 -4 -3 -3 -2 -1 -1 -1 -1 -1 -1 -1 -1 -1 -1 -2 -2 -2 -2 -2 -2 -2 -2 -2 -2 -2 -2 -2 -2 -2 -1 -1 -1 -1 -1 -1 -1 -1 -1 -1 -1 -1 -1 -1 -1 -1 -1 -1 -1 -1 -1 -2
-3 -3 -4 -4 -5 -5 -4 -4 -4 -4 -3 -3 -3 -2 -2 -2 -1 -1 -1 -1 -1 -1 -1 -1 -1 -1 -1 -1 -1 -2 -2 -2 -2 -2 -2 -2 -2 -2 -2 -2 -2 -2 -2 -2 -2 -2 -1 -1 -1 -1 -1 -1 -1 -1 -1 -0 -0 -0 -0 -0 0 -0 -0 -1 -1 -1 -2 -2 -2
-3 -3 -4 -4 -3 -3 -3 -2 -2 -2 -2 -2 -2 -2 -2 -2 -1 -1 -1 -1 -1 -1 -1 -1 -1 -1 -2 -2 -2 -2 -2 -2 -2 -2 -2 -2 -2 -2 -2 -2 -1 -1 -1 -1 -1 -1 -1 -0 -0 -0 -0 -0 -0 0 0 0 0 0 0 0 0 -0 -1 -1 -1 -2 -2 -2 -2
-2 -2 -3 -3 -3 -3 -3 -2 -2 -2 -2 -2 -2 -2 -2 -2 -1 -1 -1 -1 -1 -1 -1 -1 -1 -1 -1 -1 -1 -2 -2 -1 -1 -1 -1 -1 -1 -1 -1 -0 -1 -1 -1 -0 -0 -0 -0 -0 -0 0 0 0 0 0 0 0 0 0 0 -0 -0 -1 -1 -2 -2 -2 -2 -2 -2
-2 -2 -3 -3 -3 -3 -3 -3 -2 -2 -2 -2 -1 -1 -1 -0 -0 -0 -0 0 -0 -0 -0 -0 -0 -0 -0 -1 -1 -0 -0 -0 0 0 0 0 0 0 0 0 -0 -0 -1 -1 -1 -1 -1 -1 -1 -1 -0 0 -0 -0 -0 0 0 0 -0 -1 -1 -1 -2 -2 -2 -3 -3 -3 -3
-2 -2 -3 -2 -2 -2 -2 -1 -1 -1 -0 -0 0 0 0 1 1 1 1 1 1 1 1 1 0 0 0 0 0 0 0 0 0 0 0 0 0 -0 -1 -1 -1 -1 -1 -2 -1 -1 -1 -1 -1 -1 -1 -0 0 -0 -0 -0 -0 -0 -1 -1 -1 -2 -2 -2 -3 -3 -3 -3 -3
-2 -2 -2 -1 -1 -1 -0 0 0 0 1 1 1 1 1 1 1 1 1 1 1 1 1 1 1 0 0 0 -0 -0 -1 -1 -1 -2 -2 -2 -2 -2 -2 -2 -2 -2 -2 -2 -2 -2 -1 -1 -1 -1 -1 -1 -0 -0 -1 -1 -1 -2 -2 -2 -2 -2 -2 -2 -2 -2 -3 -3 -3
-1 -1 -0 -0 0 1 1 1 1 1 1 2 2 2 2 1 1 1 1 1 1 0 0 -0 -0 -0 -1 -1 -1 -1 -2 -2 -2 -2 -2 -2 -2 -2 -2 -2 -2 -2 -2 -2 -2 -2 -2 -3 -3 -2 -2 -2 -2 -2 -2 -2 -2 -2 -2 -3 -3 -2 -2 -2 -1 -1 -1 -1 -1
-0 -0 0 1 1 1 1 1 1 1 1 1 1 1 1 0 0 -0 -0 -1 -1 -1 -1 -1 -1 -1 -1 -2 -1 -1 -1 -1 -1 -1 -1 -1 -1 -1 -1 -2 -1 -2 -2 -2 -3 -3 -4 -4 -4 -4 -4 -3 -3 -2 -2 -2 -2 -2 -2 -2 -2 -2 -1 -1 -1 -0 0 0 0
0 0 0 1 1 1 1 1 0 0 0 -0 -0 -0 -1 -1 -1 -1 -1 -2 -2 -2 -2 -2 -2 -2 -1 -1 -1 -1 -1 -1 -1 -1 -1 -1 -1 -2 -2 -2 -3 -3 -3 -3 -3 -4 -4 -4 -4 -4 -4 -3 -3 -2 -1 -1 -1 -2 -2 -2 -2 -2 -2 -1 -1 0 1 1 1
0 0 0 0 0 0 0 -0 -0 -0 -1 -1 -1 -1 -1 -1 -1 -1 -2 -2 -2 -2 -2 -1 -1 -1 -1 -1 -1 -1 -1 -1 -1 -2 -2 -3 -3 -3 -3 -3 -3 -3 -3 -3 -3 -3 -3 -2 -3 -3 -3 -3 -2 -2 -1 -1 -1 -1 -2 -2 -2 -2 -2 -2 -1 -1 0 1 1
-0 -0 -1 -1 -1 -1 -1 -1 -1 -1 -1 -1 -1 -1 -1 -1 -1 -1 -1 -1 -1 -1 -1 -1 -1 -1 -1 -1 -2 -2 -2 -3 -3 -3 -3 -3 -3 -4 -3 -3 -2 -2 -2 -2 -2 -2 -2 -2 -2 -3 -3 -4 -4 -3 -2 -2 -2 -2 -2 -2 -2 -2 -2 -2 -1 -1 -0 0 1
-1 -2 -2 -2 -2 -2 -1 -1 -1 -1 -1 -1 -0 -0 -0 -0 -0 -0 -0 -0 -0 -1 -1 -1 -1 -2 -2 -2 -2 -3 -3 -3 -3 -2 -2 -2 -2 -2 -2 -2 -1 -1 -1 -1 -2 -2 -3 -3 -3 -4 -4 -5 -5 -4 -3 -2 -2 -2 -1 -1 -1 -1 -1 -0 0 1 1 1 1
-2 -1 -1 -1 -1 -0 0 0 0 1 1 1 1 1 1 1 0 0 -0 -1 -1 -2 -2 -2 -2 -3 -3 -3 -2 -2 -2 -1 -1 -1 -1 -0 -1 -1 -2 -2 -2 -2 -2 -2 -3 -3 -4 -4 -4 -5 -5 -5 -5 -4 -3 -2 -2 -1 -0 0 0 0 1 0 1 1 2 2 2
0 1 1 2 2 2 2 2 2 2 2 1 1 1 0 -0 -1 -1 -2 -2 -2 -2 -2 -2 -2 -2 -2 -1 -1 -1 -1 -1 -1 -1 -1 -1 -1 -2 -3 -4 -4 -3 -3 -3 -3 -4 -4 -4 -4 -4 -4 -4 -4 -3 -2 -2 -1 -0 0 1 1 1 1 1 1 1 1 2 1
2 3 3 3 3 3 2 2 1 1 0 -1 -1 -1 -2 -2 -2 -3 -3 -3 -2 -2 -2 -2 -1 -1 -1 -1 -1 -1 -2 -2 -2 -2 -3 -3 -3 -3 -4 -5 -5 -4 -3 -3 -3 -3 -3 -3 -3 -3 -3 -3 -3 -2 -2 -1 -1 -0 0 1 1 1 1 0 0 1 1 1 0
3 2 2 2 1 0 -0 -1 -2 -2 -3 -3 -3 -3 -3 -3 -3 -3 -3 -2 -2 -2 -2 -2 -1 -1 -2 -2 -2 -2 -3 -3 -4 -4 -4 -3 -3 -3 -3 -4 -5 -4 -3 -2 -2 -2 -2 -2 -2 -3 -3 -2 -2 -2 -1 -1 -1 -1 -0 -0 0 0 0 0 0 0 0 0 -0
0 -0 -1 -2 -2 -3 -3 -4 -4 -4 -4 -4 -4 -4 -3 -3 -3 -3 -2 -2 -2 -3 -3 -3 -3 -3 -3 -3 -4 -4 -4 -3 -4 -4 -3 -3 -2 -2 -1 -1 -2 -3 -3 -2 -1 -1 -1 -2 -2 -3 -3 -3 -3 -2 -2 -2 -2 -1 -1 -1 -1 -1 -1 -1 -0 -0 -0 -0 -1
-2 -3 -3 -4 -4 -4 -4 -4 -4 -4 -4 -3 -3 -3 -3 -3 -3 -3 -3 -2 -3 -3 -3 -3 -3 -3 -3 -3 -3 -3 -3 -3 -2 -2 -2 -2 -1 -1 -0 0 -1 -2 -2 -2 -2 -1 -2 -2 -2 -3 -4 -4 -3 -3 -3 -2 -2 -2 -1 -1 -1 -1 -1 -1 -1 -0 -0 -1 -1
-4 -4 -4 -4 -4 -4 -4 -3 -3 -3 -3 -3 -3 -3 -3 -3 -3 -3 -2 -2 -2 -2 -2 -2 -2 -2 -1 -1 -1 -1 -2 -2 -1 -1 -1 -1 -1 -1 -0 -0 -0 -1 -2 -2 -2 -2 -2 -2 -3 -3 -4 -4 -4 -4 -3 -3 -2 -2 -2 -2 -1 -1 -0 -1 -1 -1 -0 0 -1
-4 -4 -4 -4 -3 -3 -3 -3 -3 -3 -3 -2 -2 -2 -1 -1 -1 -1 -1 -0 -0 0 0 0 0 0 0 1 1 1 -0 -1 -1 -1 -1 -1 -2 -1 -1 -1 -1 -1 -1 -2 -2 -2 -2 -2 -3 -3 -4 -4 -4 -4 -3 -3 -3 -2 -2 -1 -2 -1 -0 0 -1 -1 -0 2 1
-3 -3 -3 -3 -3 -3 -3 -2 -2 -2 -1 -1 -0 0 0 1 0 0 0 0 0 1 1 1 1 0 0 1 1 1 1 -0 -1 -2 -2 -2 -2 -3 -3 -2 -2 -2 -2 -2 -2 -2 -2 -2 -2 -3 -4 -4 -4 -3 -3 -3 -3 -2 -2 -1 -2 -2 -1 1 0 -1 -1 0 2
-2 -2 -2 -2 -2 -1 -1 -1 -0 -0 0 0 1 1 1 1 1 1 1 0 0 0 0 0 -0 -1 -1 -1 -1 -0 0 -0 -1 -2 -3 -3 -3 -3 -3 -3 -3 -2 -1 -2 -2 -2 -2 -2 -2 -2 -3 -4 -4 -3 -3 -3 -3 -3 -2 -1 -1 -2 -2 -1 0 0 -0 -1 -0
Height
3045 3047 3048 3048 3049 3050 3051 3051 3052 3053 3054 3055 3055 3056 3057 3057 3058 3058 3058 3058 3058 3058 3058 3059 3060 3060 3061 3062 3064 3064 3065 3065 3066 3066 3067 3068 3068 3068 3069 3070 3072 3073 3074 3075 3076 3076 3076 3076 3075 3074 3075 3076 3077 3077 3078 3078 3078 3078 3079 3079 3079 3079 3079 3078 3078 3078 3078 3078 3078
3044 3045 3046 3046 3047 3048 3049 3049 3050 3051 3052 3053 3053 3054 3054 3055 3055 3056 3056 3057 3057 3057 3057 3058 3058 3059 3060 3061 3063 3063 3064 3064 3065 3065 3066 3066 3067 3068 3069 3070 3071 3072 3072 3072 3072 3072 3072 3072 3072 3073 3074 3074 3075 3075 3076 3076 3076 3077 3077 3077 3077 3077 3076 3076 3076 3075 3075 3075 3075
3042 3043 3043 3044 3045 3045 3046 3047 3048 3049 3050 3051 3051 3052 3053 3053 3053 3054 3055 3055 3055 3056 3056 3056 3057 3058 3059 3060 3061 3062 3062 3063 3064 3065 3065 3065 3066 3068 3069 3069 3069 3069 3069 3069 3069 3069 3069 3070 3071 3072 3073 3073 3073 3074 3074 3074 3074 3075 3074 3074 3074 3074 3073 3073 3073 3073 3072 3072 3072
3040 3040 3041 3042 3043 3043 3044 3045 3046 3047 3048 3049 3049 3050 3051 3051 3052 3053 3053 3053 3054 3054 3055 3055 3056 3056 3058 3059 3060 3060 3061 3062 3063 3064 3064 3065 3065 3066 3067 3067 3066 3066 3066 3067 3067 3068 3068 3069 3070 3071 3071 3071 3071 3072 3072 3072 3072 3072 3072 3072 3072 3071 3071 3071 3070 3070 3070 3070 3070
3038 3038 3039 3040 3041 3042 3043 3043 3044 3045 3046 3047 3048 3048 3049 3049 3050 3051 3052 3052 3053 3053 3053 3054 3054 3055 3056 3057 3058 3058 3059 3060 3061 3062 3063 3063 3063 3062 3062 3061 3062 3063 3063 3064 3065 3066 3067 3068 3068 3068 3068 3069 3069 3069 3070 3070 3070 3070 3069 3069 3069 3069 3069 3068 3068 3068 3068 3068 3068
3036 3037 3038 3039 3040 3040 3041 3042 3043 3043 3044 3045 3046 3046 3047 3048 3049 3049 3050 3050 3050 3051 3051 3051 3052 3053 3054 3055 3056 3056 3056 3057 3058 3058 3058 3057 3057 3057 3058 3059 3060 3061 3062 3063 3063 3064 3065 3065 3066 3066 3066 3067 3067 3068 3068 3068 3068 3068 3067 3067 3067 3067 3067 3066 3066 3066 3066 3066 3065
3035 3035 3036 3037 3038 3038 3039 3040 3041 3042 3043 3044 3044 3045 3046 3047 3047 3048 3048 3049 3049 3049 3050 3051 3051 3052 3053 3053 3054 3053 3053 3053 3053 3053 3053 3053 3053 3055 3056 3058 3059 3060 3061 3061 3062 3063 3063 3064 3064 3065 3065 3065 3066 3066 3066 3066 3066 3065 3065 3065 3065 3064 3064 3064 3063 3063 3063 3063 3063
3033 3034 3035 3036 3036 3037 3038 3039 3040 3041 3042 3043 3043 3043 3044 3045 3046 3046 3047 3048 3048 3049 3050 3051 3051 3052 3051 3051 3051 3050 3050 3049 3049 3049 3050 3051 3052 3053 3055 3057 3058 3059 3060 3061 3061 3062 3063 3063 3063 3063 3064 3064 3064 3064 3064 3064 3064 3063 3063 3063 3063 3062 3062 3062 3061 3061 3061 3060 3060
3032 3033 3034 3035 3036 3037 3038 3038 3039 3040 3040 3040 3041 3042 3042 3043 3043 3044 3045 3045 3046 3047 3048 3048 3049 3049 3048 3048 3048 3048 3048 3048 3048 3048 3049 3050 3051 3053 3055 3057 3058 3058 3059 3060 3060 3061 3061 3062 3062 3062 3062 3062 3062 3062 3062 3062 3061 3061 3061 3061 3060 3060 3060 3059 3059 3058 3058 3058 3057
3032 3033 3034 3034 3035 3036 3037 3037 3038 3038 3038 3039 3039 3040 3041 3041 3042 3043 3043 3044 3045 3045 3045 3045 3046 3046 3046 3047 3047 3047 3047 3048 3048 3048 3049 3050 3051 3053 3055 3056 3057 3058 3058 3059 3059 3059 3060 3060 3060 3060 3060 3060 3060 3060 3059 3059 3059 3059 3058 3058 3058 3058 3057 3057 3056 3056 3055 3055 3054
3031 3032 3033 3033 3034 3035 3036 3036 3037 3037 3037 3038 3038 3039 3040 3040 3041 3042 3042 3043 3043 3044 3044 3045 3045 3045 3045 3045 3046 3046 3046 3047 3047 3048 3049 3050 3052 3053 3054 3055 3055 3056 3057 3057 3057 3058 3058 3058 3058 3058 3058 3058 3057 3057 3057 3057 3056 3056 3056 3056 3055 3055 3054 3054 3053 3053 3052 3052 3051
3030 3031 3031 3032 3033 3033 3034 3034 3035 3036 3036 3037 3038 3038 3039 3040 3040 3041 3041 3042 3043 3043 3044 3044 3044 3044 3045 3045 3045 3045 3046 3046 3047 3048 3049 3050 3051 3052 3053 3053 3054 3054 3055 3055 3055 3056 3056 3056 3055 3055 3055 3055 3055 3054 3054 3054 3054 3053 3053 3053 3052 3052 3051 3051 3050 3049 3049 3048 3048
3029 3030 3031 3031 3032 3033 3033 3033 3034 3035 3036 3037 3037 3038 3039 3039 3040 3040 3041 3041 3042 3043 3043 3043 3044 3044 3044 3045 3045 3046 3046 3047 3048 3048 3049 3050 3051 3051 3052 3052 3052 3053 3053 3053 3053 3053 3053 3053 3053 3053 3053 3053 3052 3052 3052 3051 3051 3050 3050 3049 3049 3048 3048 3047 3047 3046 3045 3045 3044
3028 3029 3030 3031 3031 3032 3032 3033 3034 3035 3036 3036 3037 3038 3038 3039 3040 3040 3040 3041 3041 3042 3042 3043 3043 3043 3044 3044 3045 3045 3046 3047 3047 3048 3048 3049 3049 3050 3050 3050 3051 3051 3052 3052 3052 3052 3052 3051 3051 3051 3050 3050 3049 3049 3049 3048 3048 3047 3047 3046 3046 3045 3044 3044 3043 3043 3042 3041 3040
3028 3028 3029 3030 3031 3031 3032 3033 3034 3034 3035 3036 3037 3037 3038 3038 3039 3039 3040 3040 3041 3041 3042 3042 3042 3043 3043 3044 3044 3045 3045 3046 3046 3047 3047 3048 3048 3048 3049 3049 3049 3050 3050 3050 3050 3049 3049 3049 3048 3048 3048 3047 3047 3046 3046 3045 3045 3044 3043 3043 3043 3042 3041 3040 3040 3039 3038 3038 3037
3026 3027 3028 3029 3030 3031 3032 3033 3034 3034 3035 3036 3036 3037 3037 3038 3038 3038 3039 3039 3040 3040 3041 3041 3041 3042 3043 3043 3043 3044 3044 3045 3045 3046 3046 3047 3047 3048 3048 3048 3048 3048 3048 3048 3047 3047 3047 3047 3046 3046 3045 3044 3044 3043 3043 3042 3042 3041 3040 3040 3039 3038 3038 3037 3037 3036 3035 3034 3034
3025 3027 3028 3029 3030 3031 3032 3033 3033 3034 3035 3035 3035 3036 3036 3037 3037 3038 3038 3038 3039 3039 3040 3040 3041 3041 3042 3043 3043 3043 3044 3045 3045 3045 3046 3046 3046 3046 3046 3046 3046 3046 3045 3045 3045 3045 3044 3044 3043 3043 3042 3042 3041 3040 3040 3039 3038 3038 3037 3037 3036 3035 3034 3034 3033 3032 3032 3031 3030
3025 3026 3028 3028 3029 3030 3031 3032 3033 3033 3033 3034 3034 3035 3035 3036 3036 3037 3037 3038 3038 3039 3040 3040 3041 3042 3042 3043 3043 3043 3043 3044 3044 3044 3044 3044 3044 3044 3044 3044 3044 3043 3043 3043 3043 3042 3042 3041 3040 3040 3039 3039 3038 3038 3037 3036 3036 3035 3034 3033 3033 3032 3031 3030 3029 3028 3028 3027 3026
3025 3026 3027 3028 3029 3030 3030 3031 3032 3032 3033 3033 3034 3034 3035 3036 3036 3037 3038 3038 3039 3039 3040 3040 3041 3041 3042 3042 3042 3042 3042 3043 3043 3043 3043 3043 3043 3042 3042 3042 3042 3041 3041 3040 3040 3039 3039 3038 3038 3037 3037 3036 3035 3035 3034 3033 3033 3032 3031 3030 3029 3028 3028 3027 3026 3025 3024 3023 3022
3025 3026 3027 3028 3029 3030 3031 3032 3032 3033 3033 3034 3035 3035 3036 3036 3037 3037 3038 3038 3039 3039 3039 3040 3040 3040 3040 3041 3041 3041 3041 3041 3041 3041 3041 3041 3040 3040 3040 3040 3039 3039 3038 3038 3037 3037 3036 3036 3035 3034 3034 3033 3032 3032 3031 3030 3029 3028 3028 3027 3026 3025 3024 3023 3022 3021 3020 3019 3018
3026 3027 3028 3029 3030 3031 3032 3032 3033 3033 3034 3034 3035 3035 3036 3036 3037 3037 3038 3038 3038 3038 3039 3039 3039 3039 3039 3039 3039 3039 3039 3039 3039 3039 3039 3038 3038 3038 3038 3037 3037 3036 3036 3035 3034 3034 3033 3033 3032 3031 3030 3030 3029 3028 3027 3026 3026 3025 3024 3023 3022 3021 3020 3019 3018 3017 3016 3015 3014
3027 3028 3029 3030 3031 3031 3032 3033 3033 3033 3034 3034 3035 3035 3036 3036 3036 3037 3037 3037 3037 3037 3038 3038 3038 3038 3038 3038 3038 3038 3038 3038 3037 3037 3037 3036 3036 3035 3035 3034 3034 3033 3033 3032 3031 3031 3030 3029 3028 3028 3027 3026 3025 3024 3023 3023 3022 3021 3020 3019 3018 3017 3016 3015 3013 3013 3012 3010 3009
3028 3029 3030 3030 3031 3032 3032 3033 3033 3033 3034 3034 3034 3035 3035 3035 3035 3036 3036 3036 3036 3036 3036 3036 3036 3036 3036 3036 3036 3036 3035 3035 3035 3035 3034 3034 3033 3033 3032 3032 3031 3030 3029 3029 3028 3027 3026 3025 3024 3024 3023 3022 3021 3020 3019 3018 3018 3017 3016 3015 3014 3013 3012 3010 3009 3008 3007 3006 3005
3029 3029 3030 3031 3031 3032 3032 3033 3033 3033 3033 3033 3033 3034 3034 3034 3034 3034 3034 3034 3034 3034 3034 3034 3034 3034 3034 3034 3033 3033 3033 3033 3032 3032 3032 3031 3030 3030 3029 3028 3028 3027 3026 3025 3024 3023 3023 3022 3021 3020 3019 3018 3017 3016 3015 3015 3014 3013 3012 3011 3010 3009 3008 3007 3005 3004 3003 3002 3001
3029 3029 3030 3030 3031 3031 3031 3032 3032 3032 3032 3032 3033 3033 3033 3033 3033 3033 3033 3033 3033 3033 3033 3033 3033 3032 3032 3032 3032 3031 3031 3030 3030 3029 3029 3028 3028 3027 3026 3025 3025 3024 3023 3022 3021 3020 3019 3018 3017 3016 3016 3015 3014 3013 3012 3011 3010 3009 3008 3007 3006 3005 3004 3003 3002 3000 2999 2998 2996
3028 3029 3029 3029 3030 3030 3030 3030 3031 3031 3031 3031 3031 3031 3031 3031 3032 3032 3032 3031 3031 3031 3031 3031 3031 3031 3030 3030 3030 3029 3029 3028 3028 3027 3026 3025 3025 3024 3023 3023 3022 3021 3020 3019 3018 3017 3016 3015 3014 3013 3013 3012 3011 3010 3009 3008 3007 3006 3004 3003 3002 3001 3000 2999 2998 2996 2995 2993 2992
3027 3028 3028 3028 3028 3029 3029 3029 3029 3030 3030 3030 3030 3030 3030 3030 3030 3030 3030 3030 3030 3030 3030 3030 3029 3029 3029 3028 3028 3028 3027 3026 3026 3025 3024 3023 3022 3021 3021 3020 3019 3018 3017 3016 3015 3014 3013 3012 3011 3010 3009 3008 3007 3006 3005 3004 3003 3002 3000 2999 2998 2996 2995 2994 2993 2992 2990 2989 2987
3027 3027 3027 3028 3028 3028 3028 3029 3029 3029 3029 3029 3029 3030 3030 3030 3030 3030 3029 3029 3029 3029 3029 3028 3028 3028 3027 3027 3026 3025 3025 3024 3023 3023 3022 3021 3020 3019 3018 3018 3017 3016 3015 3014 3013 3012 3010 3009 3008 3006 3005 3004 3003 3002 3001 2999 2998 2997 2995 2994 2993 2991 2990 2988 2987 2986 2985 2983 2982
3026 3027 3027 3028 3028 3028 3028 3028 3029 3029 3029 3029 3029 3029 3029 3029 3029 3028 3028 3028 3028 3027 3027 3026 3026 3025 3025 3024 3024 3023 3023 3022 3021 3021 3020 3019 3018 3017 3016 3015 3014 3013 3012 3011 3010 3008 3007 3005 3004 3003 3001 2999 2998 2997 2996 2995 2993 2992 2991 2989 2988 2986 2984 2983 2982 2980 2979 2977 2976
3027 3027 3027 3028 3028 3028 3028 3028 3028 3028 3028 3028 3028 3028 3028 3027 3027 3027 3026 3026 3026 3025 3025 3024 3024 3023 3023 3022 3022 3021 3021 3020 3019 3018 3018 3017 3015 3014 3013 3012 3011 3010 3009 3008 3006 3005 3003 3002 3000 2999 2997 2995 2994 2993 2991 2990 2988 2987 2985 2984 2982 2981 2979 2977 2976 2974 2973 2972 2970
3027 3027 3027 3027 3027 3027 3027 3027 3027 3027 3027 3027 3027 3026 3026 3026 3025 3025 3025 3024 3024 3024 3023 3023 3022 3022 3021 3020 3020 3019 3018 3018 3017 3016 3015 3014 3013 3011 3010 3009 3008 3007 3005 3004 3003 3001 2999 2998 2996 2994 2993 2991 2989 2988 2986 2984 2983 2981 2980 2978 2977 2975 2973 2972 2970 2969 2968 2966 2965
3026 3026 3026 3026 3026 3026 3026 3026 3026 3026 3026 3026 3025 3025 3025 3025 3024 3024 3024 3023 3023 3022 3022 3021 3020 3019 3019 3018 3017 3016 3016 3015 3014 3013 3012 3011 3010 3008 3007 3006 3004 3003 3002 3000 2998 2997 2995 2993 2992 2990 2988 2986 2984 2982 2980 2979 2977 2976 2974 2973 2971 2970 2968 2967 2965 2964 2962 2961 2959
3025 3025 3026 3026 3025 3025 3025 3025 3025 3025 3025 3025 3024 3024 3024 3024 3023 3023 3022 3022 3021 3020 3020 3019 3018 3017 3016 3015 3014 3013 3013 3012 3011 3010 3009 3008 3006 3005 3003 3002 3000 2999 2997 2996 2994 2992 2990 2988 2986 2984 2982 2980 2978 2976 2975 2973 2972 2970 2969 2967 2966 2964 2963 2961 2960 2958 2957 2956 2954
3025 3025 3025 3025 3025 3025 3025 3025 3025 3024 3024 3024 3023 3023 3023 3022 3022 3021 3020 3019 3019 3018 3017 3016 3015 3014 3013 3013 3012 3011 3009 3008 3007 3006 3005 3003 3002 3001 2999 2997 2995 2993 2992 2990 2988 2987 2985 2983 2981 2979 2977 2975 2973 2971 2969 2968 2966 2965 2963 2962 2961 2959 2958 2956 2955 2953 2952 2951 2949
3024 3024 3024 3024 3024 3024 3024 3024 3024 3023 3023 3023 3022 3021 3021 3020 3019 3018 3018 3017 3016 3015 3014 3013 3012 3011 3010 3009 3008 3007 3006 3004 3003 3001 3000 2998 2997 2996 2994 2992 2990 2988 2986 2984 2983 2981 2979 2977 2975 2973 2971 2969 2968 2966 2964 2963 2961 2959 2958 2957 2956 2954 2953 2951 2950 2948 2947 2946 2945
3024 3024 3024 3024 3023 3023 3023 3023 3022 3022 3021 3020 3019 3018 3018 3017 3016 3015 3014 3013 3013 3012 3011 3009 3008 3008 3006 3005 3004 3002 3001 2999 2998 2996 2995 2993 2992 2990 2989 2987 2985 2983 2981 2979 2977 2976 2974 2972 2970 2968 2966 2964 2962 2960 2959 2957 2956 2954 2953 2952 2951 2949 2948 2947 2945 2944 2943 2942 2940
3023 3023 3023 3022 3022 3022 3021 3020 3019 3019 3018 3017 3016 3015 3014 3013 3013 3012 3011 3010 3009 3008 3007 3006 3004 3003 3002 3001 2999 2998 2996 2995 2993 2992 2990 2988 2987 2985 2984 2982 2980 2978 2976 2974 2972 2971 2969 2967 2965 2963 2961 2959 2957 2955 2953 2952 2950 2949 2948 2947 2945 2944 2943 2942 2941 2939 2938 2937 2936
3022 3021 3021 3020 3019 3019 3018 3018 3017 3016 3015 3014 3013 3012 3012 3011 3010 3009 3008 3007 3006 3005 3004 3002 3001 2999 2998 2997 2995 2994 2992 2990 2988 2987 2985 2984 2982 2981 2979 2978 2976 2974 2972 2970 2968 2966 2964 2962 2960 2958 2956 2954 2952 2950 2948 2947 2945 2944 2943 2942 2940 2939 2938 2937 2936 2935 2933 2933 2932
3020 3019 3018 3018 3017 3016 3015 3015 3014 3013 3012 3011 3011 3010 3009 3008 3007 3006 3005 3004 3003 3002 3001 2999 2998 2996 2994 2993 2992 2990 2988 2986 2984 2983 2981 2979 2978 2976 2974 2973 2971 2969 2967 2965 2963 2961 2959 2958 2955 2953 2951 2949 2947 2945 2943 2941 2940 2938 2937 2936 2935 2934 2933 2932 2931 2930 2929 2928 2927
3018 3017 3016 3015 3015 3014 3013 3012 3011 3011 3010 3009 3008 3008 3007 3006 3005 3003 3002 3001 3000 2998 2997 2996 2994 2993 2991 2989 2988 2986 2985 2983 2980 2978 2976 2974 2973 2971 2969 2967 2966 2964 2962 2960 2958 2957 2955 2953 2951 2948 2946 2944 2942 2940 2938 2936 2935 2933 2932 2931 2930 2929 2928 2927 2926 2926 2925 2924 2923
3016 3015 3014 3013 3013 3012 3011 3010 3009 3009 3008 3007 3006 3005 3004 3003 3002 3001 2999 2998 2996 2995 2993 2992 2990 2989 2987 2985 2984 2982 2981 2979 2977 2974 2972 2970 2968 2966 2964 2962 2960 2958 2957 2955 2953 2952 2950 2948 2946 2944 2941 2939 2937 2935 2933 2932 2930 2929 2928 2926 2925 2924 2923 2922 2921 2921 2920 2919 2918